Regional Weather Roundup
Issued by NWS Kansas City/Pleasant Hill, MO

Home | Current Version | Previous Version | Graphics & Text | Print | Product List | Glossary Off
Versions: 1 2 3 4 5 6 7 8 9 10 11 12 13 14 15 16 17 18 19 20 21 22 23 24 25 26 27 28 29 30 31 32 33 34 35 36 37 38 39 40 41 42 43 44 45 46 47 48 49 50

000
ASUS43 KEAX 202004
RWREAX

WEATHER ROUNDUP FOR EASTERN KANSAS AND NORTHWEST MISSOURI
NATIONAL WEATHER SERVICE KANSAS CITY/PLEASANT HILL MO
300 PM CDT SAT SEP 20 2014

KSZ040-057-103>105-MOZ028-029-037-043-202100-
...KANSAS CITY METROPOLITAN AREA...

CITY           SKY/WX    TMP DP  RH WIND       PRES   REMARKS
K.C. INTL      CLOUDY    78  71  79 S9        29.92F
K.C. DOWNTOWN  CLOUDY    83  70  64 SW9       29.91F
LEES SUMMIT    PTSUNNY   81  69  67 W8        29.95R
OLATHE - IXD   PTSUNNY   82  69  64 SW17G26   29.91F
OLATHE - OJC   PTSUNNY   81  69  67 SW9G26    29.90F
LAWRENCE       CLOUDY    82  68  62 W9        29.92F

$$

MOZ001>008-011>017-020>025-030>033-038>040-044>046-053-054-202100-
...NORTHERN AND CENTRAL MISSOURI...

CITY           SKY/WX    TMP DP  RH WIND       PRES   REMARKS
ST. JOSEPH     CLOUDY    80  71  74 SW9       29.92R
MOSBY          CLOUDY    81  70  69 SW10      29.91F
WHITEMAN AFB   PTSUNNY   81  71  70 W12G22    29.96R
CLINTON        MOSUNNY   82  73  74 SW15G22   29.95F
SEDALIA        PTSUNNY   82  69  64 W9G20     29.97R
WARSAW         NOT AVBL
MARSHALL       CLOUDY    84  72  65 SW13G20   29.95F
CHILLICOTHE      N/A     83  71  67 VRB7      29.93S
MOBERLY        CLOUDY    84  66  54 SW10      29.95S
KIRKSVILLE     CLOUDY    76  70  82 W6        29.94F

$$

MOZ041-047>049-056>058-063>065-088>090-097-202100-
...EASTERN AND SOUTHERN MISSOURI...

CITY           SKY/WX    TMP DP  RH WIND       PRES   REMARKS
ST. LOUIS INTL CLOUDY    85  69  58 SW12      29.93F
SPIRIT OF STL  CLOUDY    84  69  60 SW8       29.92F
COLUMBIA       PTSUNNY   83  68  60 SW13      29.96R
JEFFERSON CITY MOSUNNY   87  66  49 SW12      29.93F
MEXICO         CLOUDY    86  72  62 SW9       29.94S HX  92
ROLLA          MOSUNNY   83  67  58 SW9       29.96F
LEBANON        MOSUNNY   84  66  54 SW10      29.99F
OSAGE BEACH    MOSUNNY   84  66  54 SW12G17   29.96F
SPRINGFIELD    MOSUNNY   84  68  58 SW13      30.01F
BRANSON        PTSUNNY   86  66  51 SW7       30.05F
JOPLIN         MOSUNNY   83  70  64 SW12      30.01F
WEST PLAINS    MOSUNNY   83  67  58 VRB7      30.04F

$$

IAZ060-094-KSZ022-034>040-054-083-096-NEZ052-066-093-202100-
...KANSAS...SOUTHEAST NEBRASKA AND IOWA...

CITY           SKY/WX    TMP DP  RH WIND       PRES   REMARKS
TOPEKA         PTSUNNY   88  67  49 S14       29.90F HX  91
MANHATTAN      MOSUNNY   91  67  44 SW10G22   29.91F HX  94
EMPORIA        MOSUNNY   86  67  52 SW10      29.96F
CHANUTE        MOSUNNY   83  72  69 SW9       30.00S
WICHITA        MOSUNNY   91  61  36 SW16      29.96S HX  91
OMAHA          MOSUNNY   85  60  42 NW9       29.91F
LINCOLN        SUNNY     87  59  38 N8        29.95F
FALLS CITY     PTSUNNY   78  69  73 W12       29.93F
LAMONI         PTSUNNY   78  68  71 W14       29.92F
DES MOINES     MOSUNNY   84  65  52 W15       29.86F

$$




USA.gov is the U.S. government's official web portal to all federal, state and local government web resources and services.